sat.trackr.live / text

‹ back to catalog

HULIANWANG DIGUI-51

NORAD 65108 · 2025-168C

PAYLOAD ACTIVE UNKNOWN

§ Identity

Operator
Country
PRC
Launch date
2025-08-04
Launch site
WSC
Launch vehicle
Mass (kg)
RCS (m²)

External: N2YO · Heavens-Above · Gunter

§ Orbital elements

Epoch: 2026-09-21T17:59:57.105600Z

Period
108.33 min
Inclination
50.0057°
Eccentricity
0.0009545
Mean motion
13.29322895 rev/d
Perigee alt
1,142.1 km
Apogee alt
1,156.5 km
Semi-major
7,527.5 km
B*
8.1565e-5
RAAN
339.5066°
Arg perigee
15.7293°
Mean anomaly
344.3874°
Rev number
5,553

§ Raw data

HULIANWANG DIGUI-511 65108U 25168C   26264.74996650 -.00000086  00000+0  81565-4 0  99912 65108  50.0057 339.5066 0009545  15.7293 344.3874 13.29322895 55536

JSON: /api/v1/satellites/65108 · /tle

For live sub-satellite position, see the globe view (requires WebGL).

§ Visibility from observer

Set your observer location to see the next 7 days of passes ≥ 10°. The values pass through the URL so the page stays shareable.

No JS? Fill the form by hand. The geolocation button needs JavaScript.